Greenville, AL

10:55 AM CDT on June 27, 2017 (GMT -0500)
Greenville Municipal

Weather History for KPRN - February, 2014

Change the Weather History Date:

Wednesday, February 19, 2014

  Actual Average Record
Temperature  
Mean Temperature 68 °F -  
Max Temperature 79 °F 64 °F 82 °F (1956)
Min Temperature 57 °F 40 °F 19 °F (1958)
Cooling Degree Days 3    
Growing Degree Days 18 (Base 50)    
Moisture  
Dew Point 58 °F    
Average Humidity 82    
Maximum Humidity 100    
Minimum Humidity 40    
Precipitation  
Precipitation 0.00 in - - ()
Sea Level Pressure  
Sea Level Pressure 30.06 in    
Wind  
Wind Speed 5 mph (SSW)    
Max Wind Speed 14 mph    
Max Gust Speed 18 mph    
Visibility 7 miles    
Events Fog    
Averages and records for this station are not official NWS values.
T = Trace of Precipitation, MM = Missing Value Source: NWS Daily Summary

Daily Weather History Graph

Daily Weather History Graph

Search for Another Location

Airport or City:

Trip Planner

Search our weather history database for the weather conditions in past years. The results will help you decide how hot, cold, wet, or windy it might be!

Date:

Astronomy

Feb. 19, 2014 Rise Set
Actual Time 6:24 AM CST 5:36 PM CST
Civil Twilight 5:59 AM CST 6:01 PM CST
Nautical Twilight 5:31 AM CST 6:29 PM CST
Astronomical Twilight 5:02 AM CST 6:58 PM CST
Moon 10:08 PM CST (2/19) 8:48 AM CST (2/19)
Length of Visible Light 12h 01m
Length of Day
11h 11m
Waning Gibbous, 79% of the Moon is Illuminated
Feb 19
Waning Gibbous
Feb 22
Last Quarter
Mar 1
New
Mar 8
First Quarter
Mar 16
Full

Hourly Weather History & Observations

Time (CST) Temp. Dew Point Humidity Pressure Visibility Wind Dir Wind Speed Gust Speed Precip Events Conditions
12:56 AM 59.0 °F 54.0 °F 83% 30.08 in 10.0 mi South 4.6 mph - N/A   Clear
1:56 AM 57.9 °F 53.1 °F 84% 30.06 in 10.0 mi South 3.5 mph - N/A   Clear
2:44 AM 57.2 °F 53.6 °F 88% 30.07 in 10.0 mi SW 4.6 mph - N/A   Partly Cloudy
2:56 AM 57.9 °F 53.1 °F 84% 30.06 in 10.0 mi SSW 4.6 mph - N/A   Partly Cloudy
3:19 AM 57.2 °F 53.6 °F 88% 30.08 in 10.0 mi SW 6.9 mph - N/A   Mostly Cloudy
3:46 AM 57.2 °F 55.4 °F 94% 30.07 in 9.0 mi SSW 4.6 mph - N/A   Overcast
3:56 AM 57.9 °F 55.9 °F 93% 30.06 in 8.0 mi SSW 5.8 mph - N/A   Overcast
4:26 AM 57.2 °F 57.2 °F 100% 30.08 in 1.8 mi Calm Calm - N/A   Overcast
4:41 AM 57.2 °F 57.2 °F 100% 30.09 in 0.5 mi Calm Calm - N/A Fog Fog
4:56 AM 57.9 °F 57.0 °F 97% 30.09 in 0.2 mi Calm Calm - N/A Fog Fog
5:56 AM 57.9 °F 57.0 °F 97% 30.09 in 0.2 mi Calm Calm - N/A Fog Fog
6:56 AM 57.9 °F 57.0 °F 97% 30.09 in 0.2 mi Calm Calm - N/A Fog Fog
7:56 AM 59.0 °F 59.0 °F 100% 30.11 in 0.2 mi Calm Calm - N/A Fog Fog
8:56 AM 61.0 °F 60.1 °F 97% 30.11 in 0.2 mi Calm Calm - N/A Fog Fog
9:30 AM 62.6 °F 60.8 °F 94% 30.12 in 1.5 mi Calm Calm - N/A   Overcast
9:41 AM 62.6 °F 60.8 °F 94% 30.12 in 2.5 mi Calm Calm - N/A   Overcast
9:56 AM 64.0 °F 62.1 °F 93% 30.11 in 6.0 mi SW 5.8 mph - N/A   Overcast
10:15 AM 66.2 °F 62.6 °F 88% 30.12 in 10.0 mi Variable 4.6 mph - N/A   Overcast
10:56 AM 71.1 °F 62.1 °F 73% 30.09 in 10.0 mi SSW 13.8 mph 17.3 mph N/A   Mostly Cloudy
11:38 AM 73.4 °F 60.8 °F 65% 30.08 in 10.0 mi SW 10.4 mph - N/A   Mostly Cloudy
11:56 AM 73.0 °F 61.0 °F 66% 30.06 in 10.0 mi WSW 8.1 mph - N/A   Mostly Cloudy
12:56 PM 77.0 °F 59.0 °F 54% 30.02 in 10.0 mi SW 12.7 mph 18.4 mph N/A   Scattered Clouds
1:56 PM 77.0 °F 57.9 °F 52% 30.00 in 10.0 mi SSW 10.4 mph - N/A   Partly Cloudy
2:56 PM 79.0 °F 55.9 °F 45% 29.99 in 10.0 mi WSW 11.5 mph - N/A   Partly Cloudy
3:56 PM 78.1 °F 52.0 °F 40% 29.98 in 10.0 mi SSW 11.5 mph 18.4 mph N/A   Clear
4:56 PM 75.0 °F 55.9 °F 51% 29.99 in 10.0 mi South 5.8 mph - N/A   Mostly Cloudy
5:56 PM 72.0 °F 59.0 °F 64% 30.00 in 10.0 mi South 4.6 mph - N/A   Mostly Cloudy
6:56 PM 70.0 °F 60.1 °F 71% 30.01 in 10.0 mi South 6.9 mph - N/A   Mostly Cloudy
7:56 PM 66.9 °F 60.1 °F 79% 30.03 in 10.0 mi South 5.8 mph - N/A   Clear
8:56 PM 64.9 °F 61.0 °F 87% 30.04 in 10.0 mi South 6.9 mph - N/A   Clear
9:12 PM 64.4 °F 60.8 °F 88% 30.04 in 10.0 mi South 5.8 mph - N/A   Scattered Clouds
9:20 PM 64.4 °F 60.8 °F 88% 30.04 in 10.0 mi South 9.2 mph - N/A   Mostly Cloudy
9:56 PM 64.9 °F 62.1 °F 90% 30.04 in 10.0 mi South 6.9 mph - N/A   Overcast
10:56 PM 66.0 °F 62.1 °F 87% 30.03 in 10.0 mi South 5.8 mph - N/A   Overcast
11:56 PM 66.0 °F 61.0 °F 84% 30.02 in 10.0 mi South 6.9 mph - N/A   Overcast